Location: Unspecified
(0.0000°N, 0.0000°E)
Time: 13:04:13
(UTC+00:00)

Envisat - Pass Details

Date: 14 June 2021
Orbit: 764 x 766 km, 98.1° (Epoch: 18 June)

Event Time Altitude Azimuth Distance (km) Brightness Sun altitude
Rises 04:40:58 0° 21° (NNE) 3,213 6.9 -18.2°
Reaches altitude 10° 04:43:18 10° 26° (NNE) 2,290 6.2 -17.6°
Maximum altitude 04:48:13 52° 102° (ESE) 941 3.8 -16.5°
Drops below altitude 10° 04:53:08 10° 178° (S) 2,301 5.3 -15.4°
Sets 04:55:29 0° 183° (S) 3,229 6.0 -14.9°
